Deptford, New Jersey, United States
Lat: 39.83N, Lon: 75.13W
Wx Zone: NJZ017
Local Info
Past Weather Observations for Wednesday, July 16, 2014

NOTE: This archive is for the closest National Weather Service station to Deptford. Information may differ from the station used for current weather conditions.

Click here for Long-term Archive

Time Weather Temperature Dewpoint Humidity Pressure Winds Precip Visibility
23:54
Partly Cloudy
73°F / 23°C 52°F / 11°C 47% 29.92 in
(1013 mb)
WNW 8.1 mph
(WNW 13 kph)
- 10SM
22:54
Partly Cloudy
73°F / 23°C 52°F / 11°C 47% 29.92 in
(1013 mb)
NW 8.1 mph
(NW 13 kph)
- 10SM
21:54
Mostly Cloudy
75°F / 24°C 52°F / 11°C 44% 29.92 in
(1013 mb)
W 8.1 mph
(W 13 kph)
- 10SM
20:54
Mostly Cloudy
77°F / 25°C 52°F / 11°C 42% 29.89 in
(1012 mb)
NW 5.8 mph
(NW 9 kph)
- 10SM
19:54
Mostly Cloudy
79°F / 26°C 52°F / 11°C 39% 29.89 in
(1012 mb)
WNW 10.4 mph
(WNW 17 kph)
- 10SM
18:54
Mostly Cloudy
79°F / 26°C 52°F / 11°C 39% 29.86 in
(1011 mb)
NW 6.9 mph
(NW 11 kph)
- 10SM
17:54
Mostly Cloudy
81°F / 27°C 52°F / 11°C 37% 29.86 in
(1011 mb)
WNW 11.5 mph
(WNW 19 kph)
- 10SM
16:54
Overcast
81°F / 27°C 54°F / 12°C 39% 29.83 in
(1010 mb)
NW 11.5 mph
(NW 19 kph)
- 10SM
15:54
Mostly Cloudy
82°F / 28°C 54°F / 12°C 37% 29.83 in
(1010 mb)
W 11.5 mph
(W 19 kph)
- 10SM
14:54
Mostly Cloudy
82°F / 28°C 54°F / 12°C 37% 29.83 in
(1010 mb)
NW 4.6 mph
(NW 7 kph)
- 10SM
13:54
Mostly Cloudy
82°F / 28°C 52°F / 11°C 35% 29.83 in
(1010 mb)
W 10.4 mph
(W 17 kph)
- 10SM
12:54
Mostly Cloudy
82°F / 28°C 55°F / 13°C 40% 29.83 in
(1010 mb)
NE 4.6 mph
(NE 7 kph)
- 10SM
11:54
Mostly Cloudy
81°F / 27°C 55°F / 13°C 42% 29.86 in
(1011 mb)
Variable 6.9 mph
(Variable 11 kph)
- 10SM
10:54
Mostly Cloudy
81°F / 27°C 55°F / 13°C 42% 29.86 in
(1011 mb)
NW 9.2 mph
(NW 15 kph)
- 10SM
09:54
Mostly Cloudy
75°F / 24°C 55°F / 13°C 50% 29.83 in
(1010 mb)
N 10.4 mph
(N 17 kph)
- 10SM
08:54
Mostly Cloudy
73°F / 23°C 57°F / 14°C 57% 29.83 in
(1010 mb)
N 10.4 mph
(N 17 kph)
- 10SM
08:51
Mostly Cloudy
73°F / 23°C 57°F / 14°C 57% 29.83 in
(1010 mb)
NNW 10.4 mph
(NNW 17 kph)
- 10SM
07:54
Overcast
73°F / 23°C 61°F / 16°C 65% 29.83 in
(1010 mb)
N 10.4 mph
(N 17 kph)
- 10SM
06:54
Overcast
73°F / 23°C 63°F / 17°C 69% 29.83 in
(1010 mb)
N 17.3 mph
(N 28 kph)
- 10SM
05:54
Overcast
73°F / 23°C 66°F / 19°C 78% 29.8 in
(1009 mb)
NNW 12.7 mph
(NNW 20 kph)
- 10SM
04:54
Overcast
73°F / 23°C 66°F / 19°C 78% 29.77 in
(1008 mb)
NW 5.8 mph
(NW 9 kph)
- 10SM
04:30
Overcast
73°F / 23°C 66°F / 19°C 78% 29.77 in
(1008 mb)
SSW 6.9 mph
(SSW 11 kph)
- 10SM
03:54
Overcast
73°F / 23°C 70°F / 21°C 89% 29.77 in
(1008 mb)
NW 6.9 mph
(NW 11 kph)
- 9SM
03:00
Overcast
73°F / 23°C 68°F / 20°C 83% 29.77 in
(1008 mb)
SSW 3.5 mph
(SSW 6 kph)
- 8SM
02:54
Overcast
Fog And Mist
73°F / 23°C 70°F / 21°C 89% 29.77 in
(1008 mb)
SW 4.6 mph
(SW 7 kph)
0.00 in
(0.00 mm)
6SM
02:22
Overcast
Light Rain
73°F / 23°C 70°F / 21°C 89% 29.77 in
(1008 mb)
S 6.9 mph
(S 11 kph)
0.00 in
(0.00 mm)
6SM
02:01
Overcast
73°F / 23°C 70°F / 21°C 89% 29.77 in
(1008 mb)
SW 6.9 mph
(SW 11 kph)
- 9SM
01:54
Overcast
73°F / 23°C 70°F / 21°C 89% 29.77 in
(1008 mb)
SW 5.8 mph
(SW 9 kph)
0.00 in
(0.00 mm)
8SM
01:47
Overcast
73°F / 23°C 70°F / 21°C 89% 29.77 in
(1008 mb)
SW 4.6 mph
(SW 7 kph)
0.00 in
(0.00 mm)
7SM
01:34
Overcast
73°F / 23°C 70°F / 21°C 89% 29.77 in
(1008 mb)
S 8.1 mph
(S 13 kph)
0.00 in
(0.00 mm)
7SM
01:10
Overcast
Light Rain
73°F / 23°C 70°F / 21°C 89% 29.77 in
(1008 mb)
SW 6.9 mph
(SW 11 kph)
0.00 in
(0.00 mm)
8SM
00:54
Overcast
73°F / 23°C 70°F / 21°C 89% 29.77 in
(1008 mb)
SW 6.9 mph
(SW 11 kph)
0.00 in
(0.00 mm)
10SM
00:46
Overcast
73°F / 23°C 70°F / 21°C 89% 29.77 in
(1008 mb)
SSW 6.9 mph
(SSW 11 kph)
0.00 in
(0.00 mm)
10SM
Time Weather Temperature Dewpoint Humidity Pressure Winds Precip Visibility


Weather for websites

WeatherForYou.com, LLC is not responsible for any damages or problems caused by this service. Current weather conditions are obtained from the closest station including government and personal stations which may have varying degrees of accuracy. Weather forecasts are derived from the NOAA NDFD. Like all things, this site belongs to Jesus Christ... He just trusts me to maintain it. If you have any questions or comments email webmaster@weatherforyou.com

Copyright © 2014, WeatherForYou.com LLC. All rights reserved.